Starlink 31170

operational
NORAD ID: 58801 Int'l Des: 2024-012 Owner: SPXS Country: US Constellation: starlink
LEOCIRCULAR

关于 Starlink 31170

正在加载描述...

实时位置

正在加载3D地球...

即将过境

高度历史

Altitude vs Time

uPlot chart will show altitude changes over time

两行轨道根数

1 58801U 24012Q 25351.48798394 -.00002197 00000-0 -70310-4 0 9995
2 58801 43.0042 269.5366 0001383 299.5305 60.5409 15.27591290108668
Epoch: Dec 17, 2025 • Age: 10 hours

当前状态

高度 485.5 km
速度 7.63 km/s
星下点 35.56°N, 14.1°W
发射日期 Jan 15, 2024
运行时间 1.9 years
类型 internet

技术详情

分类 Payload
质量 730.00 kg
干质量 700.00 kg
总质量 730.00 kg
长度 0.30 m
直径 4.10 m
跨度 29.00 m
形状 Box + pan
制造商 SPXS
平台类型 Starlink V2M
阶段状态 In Orbit
所有者/国家 SPXS/US

大型星座

Loading constellations...